Temperature
23 23 23 22 22 21 21 20 20 20 19 19 19 18 18 18 18 18 18 18 18 18 18 18 18 18 18 18 18 18 18 17 17 17 17 17 17 17 17 17 17 17 17
22 22 22 22 21 21 20 20 20 20 19 19 19 19 19 18 18 18 18 18 18 18 18 18 18 18 18 18 18 18 18 18 17 17 17 17 17 17 17 17 17 17 17
22 22 22 22 21 21 20 20 20 19 19 19 19 18 18 18 18 18 18 18 18 18 18 18 18 18 18 18 18 18 18 18 17 17 17 17 18 18 18 17 17 17 17
22 22 22 21 21 21 20 20 19 19 19 19 19 18 18 18 18 18 18 18 18 18 18 18 18 18 18 18 18 18 18 18 18 18 17 18 18 18 18 17 17 17 17
22 22 22 22 21 21 20 20 19 19 19 19 18 18 18 18 18 18 18 18 18 18 18 18 18 18 18 18 18 18 18 17 18 18 18 18 17 17 18 17 18 17 17
22 22 22 21 21 21 20 20 19 19 19 18 18 18 18 18 18 18 18 18 18 17 17 17 17 18 18 18 18 18 17 17 17 17 17 17 17 18 18 18 18 18 17
22 22 21 21 21 20 20 20 19 19 19 18 18 18 18 18 18 18 18 18 18 17 17 17 17 17 17 17 17 17 17 17 17 17 17 17 17 17 17 18 17 17 17
22 22 22 21 21 20 20 19 19 19 18 18 18 18 18 18 18 18 18 18 17 17 17 17 17 17 17 17 17 17 17 17 17 17 17 17 17 17 17 17 17 17 17
22 22 21 21 21 20 20 20 19 19 18 18 18 18 18 18 18 17 17 17 17 17 17 17 17 17 17 17 17 17 17 17 17 17 17 17 17 17 17 17 17 17 17
22 22 21 21 21 20 20 19 19 19 18 18 18 18 18 17 17 17 17 17 17 17 17 17 17 17 17 17 17 17 17 16 16 16 16 16 16 16 17 17 17 17 17
21 21 21 21 21 20 19 19 19 18 18 18 18 17 17 17 17 17 17 17 17 17 17 17 17 17 17 17 17 16 16 16 16 16 16 16 16 16 16 16 16 16 16
22 21 21 21 20 20 19 19 19 18 18 18 17 17 17 17 17 17 17 17 17 17 17 17 17 17 17 16 16 16 16 16 16 16 16 16 16 16 16 16 16 16 16
21 21 21 20 20 20 19 19 18 18 18 17 17 17 17 17 17 17 17 17 17 17 16 16 16 16 16 16 16 16 16 15 15 15 15 15 15 15 15 15 15 15 15
21 21 20 20 20 19 19 18 18 18 18 17 17 17 17 17 17 17 17 16 16 16 16 16 16 16 16 16 16 15 15 15 15 15 15 15 15 15 15 15 15 15 14
20 20 20 19 19 19 19 18 18 18 17 17 17 17 17 17 16 16 16 16 16 16 16 16 15 15 15 15 15 15 15 15 15 14 14 14 14 14 14 14 14 14 14
20 20 20 19 19 19 19 18 18 17 17 17 17 17 16 16 16 16 16 16 16 15 15 15 15 15 15 15 15 14 14 14 14 14 14 14 13 13 13 13 13 13 13
20 20 20 19 19 19 19 18 18 17 17 17 16 16 16 16 16 16 15 15 15 15 15 15 15 14 14 14 14 14 14 14 13 13 13 13 12 12 12 12 12 12 12
20 20 19 19 19 18 18 18 17 17 17 16 16 16 16 16 15 15 15 15 15 15 14 14 14 14 14 14 14 13 13 13 13 13 12 12 12 12 12 12 11 11 10
20 20 19 19 18 18 18 18 17 17 16 16 16 16 16 15 15 15 15 15 14 14 14 14 13 13 13 13 13 13 13 12 12 12 12 11 11 11 11 11 10 10 9
20 19 19 18 18 18 17 17 17 16 16 16 16 15 15 15 15 14 14 14 14 14 13 13 13 13 12 12 12 12 12 12 11 11 11 10 10 10 10 10 9 9 8
19 19 18 18 17 17 17 17 16 16 16 16 15 15 15 14 14 14 14 14 13 13 13 12 12 12 12 11 11 11 12 11 11 10 10 9 9 9 8 8 8 8 8
18 18 18 17 17 17 16 16 16 16 15 15 15 14 14 14 14 14 13 13 13 13 12 12 11 11 11 11 11 11 10 10 10 10 9 8 8 8 8 7 7 7 7
17 17 17 16 16 16 16 16 15 15 15 15 14 14 14 13 13 13 13 13 13 12 12 11 11 10 10 10 10 10 10 9 9 8 8 8 7 7 7 6 6 6 6
17 16 16 16 15 15 15 15 15 15 14 14 14 13 13 13 13 12 12 12 12 12 11 11 10 10 9 9 9 9 9 8 8 8 7 7 7 6 6 6 6 6 6
16 16 15 15 15 15 14 14 14 14 14 14 13 13 13 12 12 12 12 11 11 11 11 11 10 10 9 9 9 8 8 8 7 7 7 6 6 6 6 5 5 5 5
15 15 14 14 14 14 14 14 13 13 13 13 12 12 12 12 12 11 11 10 10 10 10 10 10 9 9 8 8 8 7 7 7 7 6 6 6 5 5 5 5 5 4
Wind_Speed
8 10 12 12 11 10 11 11 11 10 9 6 5 5 4 4 4 5 8 10 11 11 8 4 4 5 5 5 5 3 3 2 2 2 2 3 2 3 4 5 5 8 12
8 9 11 11 12 12 11 11 11 11 9 7 5 4 4 3 5 4 5 9 10 10 9 6 5 5 5 5 4 4 3 1 2 3 2 2 3 3 3 3 5 5 7
13 11 11 10 11 12 12 12 11 11 10 8 5 4 3 2 2 3 4 5 8 9 8 8 5 5 5 5 5 5 5 3 1 2 4 3 3 3 3 2 3 4 5
11 11 11 10 12 11 11 11 11 10 9 9 8 8 6 5 6 5 5 5 7 8 9 8 7 6 5 5 5 5 4 4 2 1 2 3 4 3 1 3 2 3 5
12 11 11 11 10 11 11 10 10 10 9 9 10 8 6 5 4 4 5 5 4 5 7 7 6 6 5 6 5 5 5 4 4 3 2 2 1 2 3 2 2 1 2
10 9 8 8 8 9 9 9 10 9 9 9 9 9 8 7 6 6 6 5 4 3 5 6 6 6 5 6 6 6 6 5 4 3 3 3 3 3 3 3 2 1 2
9 8 8 9 9 10 10 9 9 9 8 9 8 8 8 8 8 7 7 6 4 4 5 5 5 5 5 5 5 5 5 5 5 4 3 3 3 3 4 3 2 1 1
7 8 8 8 8 9 9 9 9 8 8 8 8 7 8 6 6 6 6 6 5 5 6 5 5 5 6 6 5 4 5 4 4 5 4 3 2 3 3 4 4 2 1
7 8 7 7 7 8 8 9 9 8 7 7 6 6 7 7 7 6 6 5 5 6 6 6 6 5 5 5 5 4 5 4 4 4 4 3 2 2 2 3 4 5 3
8 7 6 6 6 6 7 7 8 8 7 7 6 6 6 6 6 6 6 6 6 5 6 6 6 6 5 5 5 4 4 4 4 3 3 2 2 2 2 2 3 3 4
9 8 6 6 6 6 6 7 7 6 5 5 5 4 4 4 5 5 5 5 5 5 5 6 5 6 6 5 5 4 4 4 3 3 3 3 2 2 2 2 2 3 4
8 8 8 6 6 6 6 6 6 6 5 4 4 4 4 4 4 4 4 5 5 5 4 4 4 4 5 5 5 5 4 4 4 3 3 2 3 3 3 3 3 3 4
6 6 6 6 6 6 6 6 6 6 5 5 4 4 4 4 4 3 4 4 5 4 4 4 5 5 5 5 5 5 4 4 3 4 5 4 5 4 4 5 4 4 5
7 7 7 6 6 6 6 6 6 6 6 6 5 4 4 4 4 3 4 4 4 5 5 4 4 5 5 5 6 6 6 6 6 5 5 5 5 5 6 6 5 6 7
8 9 8 7 7 7 6 6 6 6 6 6 5 4 4 4 4 4 4 4 5 5 5 5 5 5 5 5 7 7 8 8 8 8 7 8 10 10 8 7 6 7 7
9 9 9 9 9 8 7 7 7 6 6 7 6 5 5 5 5 5 5 6 5 5 6 6 6 5 4 7 10 10 9 9 9 9 8 9 11 15 16 16 14 11 9
9 9 9 8 8 8 8 8 7 7 7 7 6 6 6 6 5 6 6 6 6 6 6 6 7 7 7 10 12 13 10 10 9 8 8 8 9 11 10 15 18 17 16
9 8 8 7 6 6 7 7 7 7 7 7 7 7 8 7 6 7 6 6 6 6 6 7 7 8 8 12 14 15 11 10 9 8 9 9 8 9 11 12 13 12 10
10 8 7 8 7 7 7 8 8 7 7 6 6 6 8 8 8 7 6 6 7 7 7 7 8 9 9 11 13 13 10 11 10 9 8 9 10 13 15 13 13 11 9
9 9 8 8 7 6 8 9 8 7 6 5 5 6 7 8 8 8 7 7 8 8 8 8 8 8 8 10 12 12 10 11 9 8 9 11 11 11 12 10 11 11 7
10 10 10 8 6 6 8 8 7 6 5 5 6 6 6 7 8 8 7 8 9 9 9 9 8 8 9 10 11 11 9 10 10 8 7 7 12 12 11 9 8 10 8
10 10 9 7 5 6 8 7 6 5 6 7 7 6 6 7 8 9 9 9 10 10 10 9 8 7 7 9 11 13 12 11 10 9 7 8 13 13 12 9 11 13 10
9 8 9 7 5 4 6 7 5 6 7 8 7 6 7 7 7 8 9 9 8 8 8 8 8 7 6 8 13 14 15 14 10 8 11 13 14 13 10 12 13 10 7
8 8 8 7 5 4 4 5 5 6 8 8 7 7 7 8 7 6 6 7 7 8 8 8 9 8 6 6 7 8 9 12 11 9 11 14 13 10 9 8 7 6 5
6 7 7 6 5 5 5 4 6 8 9 8 8 7 8 9 8 7 6 5 4 6 9 8 9 10 8 6 9 9 7 7 8 8 7 6 6 6 6 5 5 5 5
6 7 6 6 5 5 5 4 5 7 9 9 8 7 8 8 8 9 9 14 10 12 12 11 10 8 10 12 12 11 11 11 12 9 7 6 6 6 5 5 4 4 4
Wind_Direction
162 154 153 155 157 159 159 158 159 160 155 153 156 156 162 163 165 173 174 175 172 168 163 161 165 161 164 173 165 151 151 158 137 96 19 345 304 226 208 201 195 203 206
153 156 155 158 165 168 166 161 164 166 166 167 162 157 152 166 166 169 177 179 176 176 175 163 171 168 162 165 163 150 142 167 144 135 109 2 336 313 236 211 202 203 199
165 168 165 165 167 171 171 169 168 170 170 164 146 137 116 105 144 172 186 189 181 181 178 171 172 173 166 171 175 165 155 173 198 155 149 155 220 276 308 252 218 198 194
168 172 171 171 173 174 171 165 166 168 168 163 163 168 173 179 191 184 190 192 185 178 177 175 174 178 173 173 182 173 164 159 181 199 188 171 163 162 270 315 269 217 208
171 174 177 174 172 168 167 167 166 169 169 170 173 177 180 187 180 176 183 189 188 185 180 176 174 178 181 184 183 173 171 165 170 180 175 143 134 139 150 235 295 309 254
167 169 166 157 161 163 165 167 168 174 175 175 176 179 181 179 174 178 182 181 182 196 199 183 181 183 185 189 188 182 176 176 170 171 167 163 160 176 162 184 224 243 282
159 161 160 162 164 165 169 169 170 176 179 178 181 184 186 182 182 182 184 180 183 197 208 200 191 189 188 189 184 180 180 178 175 179 179 176 186 173 162 159 182 206 273
155 159 164 163 164 167 169 169 172 177 180 182 189 190 188 187 189 188 186 188 191 197 199 196 193 191 190 193 179 183 188 182 183 192 182 174 194 172 166 163 154 137 353
150 149 150 150 153 157 165 169 168 171 175 181 186 187 185 184 185 186 186 188 190 194 195 194 196 196 191 185 176 182 187 176 185 189 184 183 200 178 172 163 157 154 167
144 146 147 150 150 156 157 156 160 167 173 176 180 185 184 183 181 176 184 187 188 187 185 194 196 191 185 177 171 170 174 168 187 186 171 182 190 164 154 157 157 159 160
151 151 153 157 147 139 142 148 152 152 159 165 167 165 167 170 167 171 179 182 182 178 181 188 186 183 178 168 165 170 162 169 186 183 164 172 147 128 112 111 115 123 131
152 152 153 149 137 133 140 145 147 147 151 149 146 148 146 147 156 166 175 171 172 172 172 166 163 165 159 159 160 166 165 162 166 164 140 140 129 110 107 104 99 107 118
138 140 141 143 147 145 143 144 141 142 143 138 135 138 138 140 147 158 159 155 157 156 151 149 156 153 149 143 143 144 137 131 135 135 125 118 113 101 94 94 94 95 99
155 152 148 146 151 153 150 148 146 148 147 141 138 144 148 147 147 145 144 145 147 145 141 139 142 136 132 133 133 127 121 112 100 101 104 104 107 109 103 94 95 101 99
161 159 154 148 145 145 146 146 143 143 142 138 139 147 143 136 129 125 122 118 120 125 122 121 122 123 130 139 135 127 120 112 100 89 86 88 92 93 95 100 100 104 103
163 157 152 150 152 155 153 148 145 144 137 135 138 133 125 122 119 113 106 101 100 102 103 105 111 110 117 126 129 126 118 115 110 101 90 84 83 86 85 87 88 96 108
155 153 153 154 155 156 153 153 150 141 135 135 135 132 127 120 116 116 107 104 100 98 97 96 98 99 103 114 117 117 117 113 111 109 104 97 91 88 91 82 78 75 80
143 145 151 148 146 142 138 139 138 139 136 134 137 135 129 125 119 115 113 108 103 101 98 96 98 96 98 107 110 108 103 100 98 99 104 107 100 100 102 95 84 76 71
146 147 149 138 134 136 133 123 122 125 126 131 139 141 139 135 130 127 123 116 110 101 97 99 100 99 97 103 109 111 108 101 93 89 90 100 101 104 104 102 98 90 79
131 131 125 118 127 135 127 122 125 123 127 134 136 135 137 135 133 130 124 114 109 106 102 95 94 99 99 100 109 113 116 111 104 92 85 87 96 101 103 107 109 105 98
121 119 116 118 125 128 125 126 129 134 136 126 119 118 126 130 131 125 119 115 112 106 100 95 87 88 95 98 99 107 116 120 114 105 96 88 93 92 94 100 107 114 113
112 114 114 114 113 119 125 127 131 132 124 120 115 113 118 125 128 124 120 119 118 113 108 102 93 82 85 94 98 97 102 111 112 110 106 100 94 89 89 90 93 95 94
111 110 113 109 99 108 126 135 138 131 126 123 122 119 115 113 120 126 129 126 123 123 121 117 110 100 92 92 93 96 99 100 103 106 108 101 94 88 83 84 88 88 91
113 112 112 110 104 95 98 122 131 131 129 129 127 122 119 113 107 109 119 128 133 133 131 129 125 120 113 110 108 106 104 101 102 103 98 92 88 87 85 81 77 77 92
111 113 115 120 119 111 109 113 129 132 128 127 125 121 118 116 106 92 83 105 104 136 139 140 139 138 135 134 127 125 121 122 121 115 100 93 92 86 81 76 72 74 79
112 110 110 118 122 119 114 111 129 135 135 133 129 125 123 120 116 111 90 65 80 91 99 112 122 117 124 127 121 119 120 120 121 113 114 113 109 108 108 103 90 80 85
Height
1504 1506 1508 1512 1514 1517 1519 1520 1522 1525 1528 1530 1533 1536 1539 1542 1545 1548 1550 1552 1554 1556 1557 1559 1561 1563 1565 1566 1568 1569 1571 1572 1573 1574 1575 1575 1576 1576 1576 1577 1577 1578 1578
1503 1505 1507 1510 1512 1514 1517 1519 1521 1524 1527 1529 1532 1535 1538 1540 1543 1546 1548 1550 1552 1554 1556 1558 1559 1561 1563 1565 1566 1568 1569 1570 1572 1573 1573 1574 1575 1574 1575 1575 1576 1577 1577
1500 1503 1506 1508 1510 1512 1515 1517 1520 1522 1525 1528 1531 1534 1536 1539 1541 1543 1546 1548 1550 1552 1554 1556 1558 1560 1562 1563 1565 1566 1567 1569 1570 1571 1572 1572 1572 1572 1573 1573 1574 1575 1576
1500 1502 1504 1506 1508 1510 1513 1515 1518 1521 1523 1526 1528 1531 1533 1535 1537 1540 1543 1546 1548 1550 1552 1554 1556 1558 1559 1561 1562 1564 1566 1567 1568 1569 1570 1571 1571 1571 1571 1572 1572 1573 1574
1499 1501 1502 1505 1507 1509 1511 1514 1516 1519 1521 1524 1526 1529 1531 1533 1536 1539 1541 1543 1545 1548 1550 1552 1554 1555 1557 1558 1560 1561 1563 1564 1565 1566 1567 1568 1569 1569 1570 1569 1571 1571 1572
1499 1501 1503 1505 1507 1509 1510 1512 1514 1517 1519 1522 1524 1527 1529 1531 1533 1535 1538 1540 1542 1544 1547 1549 1551 1552 1554 1556 1557 1559 1560 1562 1563 1564 1565 1566 1567 1567 1568 1568 1568 1569 1570
1498 1500 1502 1504 1506 1507 1509 1511 1513 1515 1518 1520 1522 1524 1526 1528 1530 1532 1535 1537 1539 1541 1543 1545 1547 1549 1551 1553 1554 1556 1557 1559 1560 1561 1562 1563 1564 1565 1566 1566 1566 1567 1568
1497 1500 1502 1504 1506 1507 1508 1509 1511 1513 1516 1518 1520 1522 1524 1526 1528 1530 1532 1534 1536 1538 1540 1542 1544 1546 1548 1550 1551 1552 1554 1555 1557 1558 1559 1560 1561 1563 1563 1564 1565 1565 1566
1498 1501 1502 1504 1506 1507 1508 1509 1510 1512 1514 1516 1518 1520 1521 1523 1525 1527 1529 1531 1533 1535 1537 1539 1541 1542 1544 1546 1548 1549 1550 1552 1553 1555 1556 1557 1558 1560 1561 1561 1562 1564 1563
1499 1501 1503 1504 1505 1507 1508 1509 1510 1511 1513 1515 1517 1518 1519 1520 1522 1524 1526 1528 1530 1532 1534 1535 1537 1539 1541 1543 1544 1546 1547 1548 1550 1551 1552 1554 1555 1556 1557 1558 1559 1560 1561
1497 1500 1503 1504 1505 1506 1507 1508 1510 1511 1512 1514 1515 1516 1517 1518 1520 1521 1523 1525 1527 1529 1531 1532 1534 1536 1538 1540 1541 1542 1544 1545 1547 1548 1549 1550 1552 1553 1554 1555 1556 1557 1558
1496 1499 1502 1504 1505 1506 1507 1508 1509 1510 1511 1512 1513 1514 1515 1516 1518 1519 1521 1523 1524 1526 1528 1530 1532 1533 1535 1536 1538 1539 1541 1542 1544 1545 1546 1547 1549 1550 1551 1552 1553 1554 1555
1497 1499 1501 1503 1505 1506 1507 1508 1509 1509 1511 1511 1512 1513 1514 1515 1516 1518 1519 1521 1522 1524 1525 1527 1529 1531 1532 1534 1536 1537 1538 1540 1541 1542 1543 1544 1546 1547 1549 1550 1551 1552 1553
1497 1499 1501 1503 1505 1506 1507 1508 1508 1509 1510 1510 1511 1512 1513 1513 1515 1516 1517 1519 1520 1521 1523 1525 1526 1528 1530 1532 1533 1534 1536 1537 1538 1539 1541 1542 1544 1545 1546 1547 1548 1549 1550
1496 1498 1500 1502 1504 1506 1506 1507 1508 1508 1509 1510 1510 1511 1512 1513 1514 1515 1516 1517 1519 1519 1521 1523 1525 1526 1528 1529 1531 1533 1534 1535 1536 1538 1539 1540 1542 1543 1545 1546 1547 1548 1549
1495 1497 1500 1502 1503 1504 1505 1506 1507 1508 1509 1509 1510 1511 1512 1512 1513 1514 1515 1516 1517 1518 1520 1521 1523 1524 1526 1528 1530 1531 1532 1534 1535 1536 1538 1539 1541 1542 1544 1545 1546 1547 1548
1493 1496 1498 1501 1502 1503 1504 1505 1507 1508 1508 1509 1510 1511 1511 1512 1513 1514 1515 1516 1517 1518 1520 1521 1522 1523 1525 1527 1528 1530 1531 1533 1534 1535 1537 1538 1540 1541 1542 1544 1545 1546 1547
1491 1495 1498 1500 1501 1503 1504 1505 1506 1507 1508 1508 1509 1510 1510 1512 1513 1514 1515 1516 1517 1519 1520 1521 1522 1523 1524 1526 1527 1529 1530 1531 1533 1535 1536 1538 1539 1541 1542 1543 1544 1545 1546
1489 1493 1497 1498 1500 1502 1503 1504 1505 1506 1507 1508 1509 1510 1511 1511 1513 1514 1515 1516 1517 1518 1519 1520 1521 1522 1523 1525 1527 1528 1529 1531 1533 1535 1537 1538 1539 1541 1543 1543 1544 1545 1547
1488 1491 1494 1497 1499 1501 1502 1503 1504 1505 1506 1507 1508 1509 1510 1511 1512 1513 1515 1516 1517 1518 1519 1520 1521 1523 1524 1525 1527 1528 1529 1531 1532 1534 1536 1539 1540 1542 1544 1545 1545 1545 1547
1488 1490 1493 1496 1498 1499 1501 1502 1503 1504 1505 1507 1508 1508 1509 1510 1512 1513 1514 1515 1516 1518 1519 1520 1522 1523 1525 1526 1527 1529 1530 1531 1532 1534 1537 1539 1541 1543 1545 1546 1547 1547 1549
1488 1490 1492 1495 1497 1498 1499 1501 1502 1503 1504 1505 1506 1507 1508 1510 1511 1512 1513 1515 1516 1517 1519 1520 1522 1524 1525 1527 1529 1530 1532 1533 1534 1536 1538 1540 1542 1544 1546 1547 1548 1549 1550
1488 1490 1491 1493 1495 1496 1498 1499 1500 1501 1502 1504 1505 1506 1507 1508 1510 1511 1512 1514 1515 1517 1518 1520 1521 1524 1526 1528 1530 1532 1533 1535 1536 1538 1540 1542 1544 1546 1547 1549 1550 1551 1552
1487 1489 1490 1492 1493 1495 1496 1498 1499 1500 1501 1502 1503 1505 1506 1507 1509 1511 1512 1513 1515 1516 1518 1519 1521 1524 1526 1528 1530 1533 1535 1536 1538 1540 1542 1544 1546 1547 1549 1551 1552 1553 1554
1486 1487 1489 1490 1492 1493 1495 1496 1497 1498 1499 1501 1502 1503 1505 1507 1508 1510 1512 1514 1515 1517 1518 1520 1522 1524 1526 1529 1532 1534 1536 1538 1540 1542 1543 1545 1547 1549 1550 1552 1554 1555 1556
1485 1487 1488 1490 1491 1492 1494 1495 1496 1497 1498 1499 1500 1502 1504 1506 1507 1509 1511 1514 1516 1518 1520 1522 1524 1526 1528 1531 1533 1536 1538 1540 1542 1544 1545 1547 1549 1551 1552 1554 1555 1556 1557